Location: ??????
(36.0418°N, 43.6351°E)
Time: 05:30:04
(UTC+00:00)

METEOR-M - Pass Details

Date: 07 March 2021
Orbit: 815 x 820 km, 98.5° (Epoch: 20 April)

Event Time Altitude Azimuth Distance (km) Brightness Sun altitude
Rises 02:10:05 0° 4° (N) 3,350 7.4 -16.5°
Reaches altitude 10° 02:12:32 10° 358° (N) 2,414 6.6 -16.0°
Maximum altitude 02:17:32 42° 289° (WNW) 1,143 4.5 -15.0°
Drops below altitude 10° 02:22:31 10° 219° (SW) 2,399 6.2 -14.0°
Enters shadow 02:24:01 - 215° (SW) 2,968 6.7 -13.7°
